This demonstration page uses our WeatherBlox Daily Observations layout. Learn more.

Left ArrowRight Arrow

Hourly Observations for September 8, 2019

Temp ( °F °C ) Dew Point ( °F °C ) Humidity (%) Winds ( mph kmh ) Pressure ( in mb ) Visibility ( mi km ) Precip ( " mm )
12:14 am 00:14 Mostly Cloudy 67 19.4 63 17.2 87 87 ENE 8 13 29.90 1013 10 16 0.00 0.00
12:54 am 00:54 Cloudy 67 19.4 63 17.2 87 87 E 9 15 29.90 1013 10 16 0.00 0.00
1:54 am 01:54 Mostly Cloudy 65 18.3 62 16.7 90 90 NE 6 9 29.91 1013 10 16 0.00 0.00
2:54 am 02:54 Cloudy 66 18.9 63 17.2 90 90 E 7 11 29.91 1013 10 16 0.00 0.00
3:54 am 03:54 Cloudy 65 18.3 62 16.7 90 90 Calm 29.90 1013 10 16 0.00 0.00
4:50 am 04:50 Cloudy 64 18 63 17 94 94 NE 3 6 29.91 1013 10 16 0.00 0.00
4:54 am 04:54 Cloudy 65 18.3 63 17.2 93 93 NE 3 6 29.91 1013 10 16 0.00 0.00
5:40 am 05:40 Cloudy 66 18.9 63 17.2 90 90 E 3 6 29.92 1013 10 16 0.00 0.00
5:54 am 05:54 Cloudy 66 18.9 63 17.2 90 90 ENE 5 7 29.93 1014 9 14 0.00 0.00
6:54 am 06:54 Cloudy with Mist and Fog 65 18.3 63 17.2 93 93 NE 7 11 29.95 1014 6 10 0.00 0.00
7:30 am 07:30 Cloudy with Mist and Fog 65 18.3 63 17.2 93 93 ENE 6 9 29.95 1014 4 6 0.00 0.00
7:54 am 07:54 Cloudy with Mist and Fog 65 18.3 62 16.7 90 90 E 7 11 29.96 1015 6 10 0.00 0.00
8:54 am 08:54 Cloudy 66 18.9 62 16.7 87 87 E 5 7 29.97 1015 9 14 0.00 0.00
9:54 am 09:54 Cloudy 68 20 63 17.2 84 84 ESE 3 6 29.97 1015 10 16 0.00 0.00
10:16 am 10:16 Cloudy 69 20.6 63 17.2 81 81 Calm 29.96 1015 10 16 0.00 0.00
10:54 am 10:54 Cloudy 69 20.6 63 17.2 81 81 SE 6 9 29.98 1015 10 16 0.00 0.00
11:54 am 11:54 Cloudy 72 22.2 64 17.8 76 76 N 5 7 29.97 1015 10 16 0.00 0.00
12:28 pm 12:28 Partly Cloudy 74 23.3 65 18.3 74 74 N 6 9 29.93 1014 10 16 0.00 0.00
12:40 pm 12:40 Mostly Cloudy 74 23.3 65 18.3 74 74 NNE 7 11 29.92 1013 10 16 0.00 0.00
12:54 pm 12:54 Mostly Cloudy 74 23.3 65 18.3 74 74 N 8 13 29.94 1014 10 16 0.00 0.00
1:20 pm 13:20 Mostly Cloudy 75 23.9 66 18.9 74 74 NE 7 11 29.92 1013 10 16 0.00 0.00
1:54 pm 13:54 Mostly Cloudy 76 24.4 66 18.9 72 72 NE 9 15 29.92 1013 10 16 0.00 0.00
2:54 pm 14:54 Cloudy 75 23.9 66 18.9 74 74 E 12 19 29.92 1013 10 16 0.00 0.00
3:36 pm 15:36 Cloudy 74 23.3 66 18.9 76 76 undefined N/A 29.89 1012 10 16 0.00 0.00
3:54 pm 15:54 Cloudy 73 22.8 66 18.9 79 79 ENE 8 13 29.93 1013 10 16 0.00 0.00
4:37 pm 16:37 Cloudy 73 22.8 66 18.9 79 79 ENE 7 11 29.93 1013 8 13 0.00 0.00
4:54 pm 16:54 Cloudy 73 22.8 66 18.9 79 79 E 7 11 29.94 1014 7 11 0.00 0.00
5:16 pm 17:16 Cloudy with Haze 72 22.2 66 18.9 82 82 E 9 15 29.93 1013 5 8 0.00 0.00
5:54 pm 17:54 Cloudy with Haze 72 22.2 66 18.9 82 82 ENE 9 15 29.93 1014 6 10 0.00 0.00
6:54 pm 18:54 Cloudy 72 22.2 66 18.9 82 82 E 10 17 29.92 1013 9 14 0.00 0.00
7:54 pm 19:54 Cloudy 71 21.7 66 18.9 84 84 ENE 10 17 29.91 1013 10 16 0.00 0.00
8:08 pm 20:08 Cloudy 71 21.7 67 19.4 87 87 ENE 9 15 29.91 1013 10 16 0.00 0.00
8:54 pm 20:54 Cloudy 70 21.1 66 18.9 87 87 ESE 9 15 29.93 1014 10 16 0.00 0.00
9:54 pm 21:54 Cloudy 70 21.1 66 18.9 87 87 E 8 13 29.94 1014 10 16 0.00 0.00
10:54 pm 22:54 Cloudy 71 21.7 66 18.9 84 84 E 8 13 29.94 1014 10 16 0.00 0.00
11:54 pm 23:54 Cloudy 71 21.7 67 19.4 87 87 ESE 9 15 29.92 1013 10 16 0.00 0.00

Powered by AerisWeather